Cadillac, MI

1:05 AM EST on February 23, 2017 (GMT -0500)
Wexford County

Weather History for KCAD - October, 2012

Change the Weather History Date:

Tuesday, October 23, 2012

  Actual Average Record
Temperature  
Mean Temperature 55 °F -  
Max Temperature 56 °F 53 °F 80 °F (1963)
Min Temperature 54 °F 33 °F 19 °F (1976)
Degree Days  
Heating Degree Days 10    
Growing Degree Days 5 (Base 50)    
Moisture  
Dew Point 54 °F    
Average Humidity 92    
Maximum Humidity 93    
Minimum Humidity 91    
Precipitation  
Precipitation 0.00 in - - ()
Sea Level Pressure  
Sea Level Pressure 29.96 in    
Wind  
Wind Speed 6 mph (East)    
Max Wind Speed 13 mph    
Max Gust Speed -    
Visibility 2 miles    
Events Fog    
Averages and records for this station are not official NWS values.
T = Trace of Precipitation, MM = Missing Value Source: NWS Daily Summary

Daily Weather History Graph

Daily Weather History Graph

Search for Another Location

Airport or City:

Trip Planner

Search our weather history database for the weather conditions in past years. The results will help you decide how hot, cold, wet, or windy it might be!

Date:

Astronomy

Oct. 23, 2012 Rise Set
Actual Time 8:07 AM EDT 6:43 PM EDT
Civil Twilight 7:37 AM EDT 7:13 PM EDT
Nautical Twilight 7:03 AM EDT 7:47 PM EDT
Astronomical Twilight 6:30 AM EDT 8:20 PM EDT
Moon 3:38 PM EDT 1:45 AM EDT
Length of Visible Light 11h 35m
Length of Day
10h 36m
Waxing Gibbous, 66% of the Moon is Illuminated
Oct 23
Waxing Gibbous
Oct 29
Full
Nov 6
Last Quarter
Nov 13
New
Nov 20
First Quarter

Hourly Weather History & Observations

Time (EDT) Temp. Dew Point Humidity Pressure Visibility Wind Dir Wind Speed Gust Speed Precip Events Conditions
12:14 AM 56.7 °F 54.3 °F 92% 29.95 in 2.5 mi ENE 5.8 mph - N/A   Drizzle
12:34 AM 56.5 °F 54.1 °F 92% 29.95 in 3.0 mi East 4.6 mph - N/A   Light Drizzle
12:54 AM 56.5 °F 54.1 °F 92% 29.94 in 3.0 mi East 4.6 mph - N/A   Overcast
1:15 AM 56.5 °F 54.1 °F 92% 29.94 in 2.5 mi East 5.8 mph - N/A   Overcast
1:34 AM 56.5 °F 54.1 °F 92% 29.94 in 1.8 mi ENE 6.9 mph - N/A   Overcast
1:54 AM 56.5 °F 54.1 °F 92% 29.94 in 2.5 mi ENE 8.1 mph - N/A   Overcast
2:14 AM 56.5 °F 54.1 °F 92% 29.93 in 2.5 mi ENE 5.8 mph - N/A   Overcast
2:34 AM 56.5 °F 54.1 °F 92% 29.93 in 2.0 mi ENE 3.5 mph - N/A   Overcast
2:54 AM 56.5 °F 54.1 °F 92% 29.93 in 2.0 mi East 5.8 mph - N/A   Overcast
3:14 AM 56.5 °F 54.1 °F 92% 29.93 in 2.0 mi East 5.8 mph - N/A   Overcast
3:34 AM 56.5 °F 54.1 °F 92% 29.93 in 1.2 mi Calm Calm - N/A   Overcast
3:54 AM 56.5 °F 54.1 °F 92% 29.93 in 0.5 mi ENE 4.6 mph - N/A Fog Fog
4:14 AM 56.5 °F 54.1 °F 92% 29.93 in 0.2 mi ENE 3.5 mph - N/A Fog Fog
4:34 AM 56.5 °F 54.3 °F 92% 29.93 in 0.2 mi Calm Calm - N/A Fog Fog
4:54 AM 56.5 °F 54.5 °F 93% 29.93 in 0.2 mi Calm Calm - N/A Fog Fog
5:14 AM 56.5 °F 54.5 °F 93% 29.93 in 0.2 mi Calm Calm - N/A Fog Fog
5:34 AM 56.5 °F 54.5 °F 93% 29.94 in 0.2 mi Calm Calm - N/A Fog Fog
5:54 AM 56.5 °F 54.5 °F 93% 29.94 in 0.2 mi Calm Calm - N/A Fog Fog
6:14 AM 56.5 °F 54.5 °F 93% 29.95 in 0.2 mi Calm Calm - N/A Fog Fog
6:34 AM 56.5 °F 54.5 °F 93% 29.95 in 0.8 mi Calm Calm - N/A   Overcast
6:54 AM 56.5 °F 54.5 °F 93% 29.95 in 0.5 mi NE 4.6 mph - N/A Fog Fog
7:34 AM 56.5 °F 54.5 °F 93% 29.94 in 1.0 mi ENE 10.4 mph - N/A   Overcast
7:54 AM 56.5 °F 54.5 °F 93% 29.95 in 0.5 mi East 10.4 mph - N/A Fog Fog
8:14 AM 56.5 °F 54.5 °F 93% 29.95 in 2.0 mi ENE 9.2 mph - N/A   Overcast
8:34 AM 56.5 °F 54.5 °F 93% 29.95 in 2.5 mi ENE 6.9 mph - N/A   Overcast
8:54 AM 56.5 °F 54.5 °F 93% 29.95 in 2.5 mi ENE 6.9 mph - N/A   Overcast
9:14 AM 56.5 °F 54.5 °F 93% 29.95 in 2.5 mi ENE 9.2 mph - N/A   Overcast
9:34 AM 56.5 °F 54.5 °F 93% 29.95 in 1.2 mi ENE 9.2 mph - N/A   Overcast
9:54 AM 56.5 °F 54.5 °F 93% 29.95 in 1.0 mi ENE 10.4 mph - N/A   Overcast
10:14 AM 56.5 °F 54.5 °F 93% 29.96 in 2.0 mi East 8.1 mph - N/A   Overcast
10:35 AM 56.5 °F 54.3 °F 92% 29.97 in 2.0 mi East 8.1 mph - N/A   Overcast
11:14 AM 56.5 °F 54.5 °F 93% 29.99 in 1.8 mi ESE 6.9 mph - N/A   Overcast
11:54 AM 56.5 °F 54.5 °F 93% 30.00 in 1.0 mi ESE 10.4 mph - N/A   Overcast
12:14 PM 56.5 °F 54.5 °F 93% 29.99 in 1.2 mi East 6.9 mph - N/A   Overcast
12:34 PM 56.5 °F 54.5 °F 93% 30.00 in 1.5 mi ESE 4.6 mph - N/A   Overcast
12:54 PM 56.5 °F 54.5 °F 93% 29.98 in 1.0 mi East 6.9 mph - N/A   Overcast
1:14 PM 56.5 °F 54.5 °F 93% 29.98 in 1.0 mi East 6.9 mph - N/A   Overcast
1:34 PM 56.5 °F 54.5 °F 93% 29.97 in 1.2 mi East 5.8 mph - N/A   Overcast
1:54 PM 56.5 °F 54.5 °F 93% 29.97 in 1.8 mi East 8.1 mph - N/A   Overcast
2:14 PM 56.5 °F 54.5 °F 93% 29.97 in 1.0 mi East 6.9 mph - N/A   Overcast
2:34 PM 56.5 °F 54.5 °F 93% 29.96 in 1.2 mi ESE 9.2 mph - N/A   Overcast
2:54 PM 56.5 °F 54.5 °F 93% 29.96 in 2.0 mi East 6.9 mph - N/A   Overcast
3:14 PM 56.7 °F 54.5 °F 92% 29.96 in 4.0 mi East 6.9 mph - N/A   Overcast
3:34 PM 56.7 °F 54.3 °F 92% 29.95 in 5.0 mi East 6.9 mph - N/A   Overcast
3:54 PM 56.7 °F 54.3 °F 92% 29.95 in 5.0 mi East 8.1 mph - N/A   Overcast
4:14 PM 56.8 °F 54.5 °F 92% 29.95 in 5.0 mi East 6.9 mph - N/A   Overcast
4:34 PM 56.7 °F 54.0 °F 91% 29.95 in 5.0 mi East 6.9 mph - N/A   Overcast
4:54 PM 56.5 °F 53.8 °F 91% 29.96 in 4.0 mi East 8.1 mph - N/A   Overcast
5:14 PM 56.5 °F 53.8 °F 91% 29.96 in 3.0 mi East 5.8 mph - N/A   Overcast
5:34 PM 56.5 °F 54.0 °F 91% 29.96 in 0.5 mi East 9.2 mph - N/A Fog Fog
5:54 PM 56.5 °F 54.1 °F 92% 29.96 in 0.8 mi East 9.2 mph - N/A   Overcast
6:14 PM 56.5 °F 54.1 °F 92% 29.96 in 0.5 mi East 6.9 mph - N/A Fog Fog
6:34 PM 56.5 °F 54.1 °F 92% 29.96 in 0.2 mi East 12.7 mph - N/A Fog Fog
6:54 PM 56.5 °F 54.1 °F 92% 29.96 in 0.5 mi East 12.7 mph - N/A Fog Fog
7:14 PM 54.0 °F 51.8 °F 92% 29.96 in 0.5 mi East 10.4 mph - N/A Fog Fog
7:34 PM 54.0 °F 51.8 °F 92% 29.96 in 0.5 mi East 9.2 mph - N/A Fog Fog
7:54 PM 54.1 °F 52.0 °F 92% 29.96 in 0.8 mi East 11.5 mph - N/A   Overcast
8:14 PM 54.0 °F 51.8 °F 92% 29.97 in 0.8 mi East 5.8 mph - N/A   Overcast
8:35 PM 54.0 °F 52.0 °F 93% 29.97 in 0.8 mi ESE 9.2 mph - N/A   Overcast
8:54 PM 54.9 °F 52.9 °F 93% 29.98 in 1.0 mi ESE 8.1 mph - N/A   Overcast
9:14 PM 55.6 °F 53.6 °F 93% 29.98 in 2.0 mi ESE 8.1 mph - N/A   Overcast
9:35 PM 54.0 °F 52.0 °F 93% 29.98 in 3.0 mi ESE 8.1 mph - N/A   Overcast
9:54 PM 54.0 °F 51.8 °F 92% 29.98 in 3.0 mi ESE 9.2 mph - N/A   Overcast
10:14 PM 54.0 °F 51.8 °F 92% 29.99 in 3.0 mi ESE 5.8 mph - N/A   Overcast
10:35 PM 54.0 °F 51.8 °F 92% 29.99 in 3.0 mi ESE 8.1 mph - N/A   Overcast
10:54 PM 54.0 °F 51.8 °F 92% 29.99 in 2.5 mi ESE 6.9 mph - N/A   Overcast
11:35 PM 54.0 °F 51.8 °F 92% 29.98 in 2.5 mi ESE 6.9 mph - N/A   Overcast
11:54 PM 54.0 °F 51.8 °F 92% 29.98 in 2.0 mi ESE 6.9 mph - N/A   Overcast